Home   Weather   Unalaska   Past weeks

Flag for USA Past Weather in Unalaska, Alaska, USA — Yesterday and Last 2 Weeks

Now
28 °F

Partly sunny.


Feels Like: 22 °F
Forecast: 26 / 33 °F
Wind: 6 mph from Southeast

Location: Dutch Harbor

Current Time: Jan 19, 2017 at 12:37:11 pm

Latest Report: Jan 19, 2017 at 11:56 am


Visibility: 10 mi

Pressure: 29.37 "Hg

Humidity: 81%

Dew Point: 23 °F

Location of UnalaskaLocation

Past Weather in Unalaska — Graph

°F

Unalaska Temperature Yesterday

Maximum temperature yesterday: 34 °F (at 5:33 pm)
Minimum temperature yesterday: 19 °F (at 4:56 am)
Average temperature yesterday: 29 °F

High & Low Weather Summary for the Past Weeks

 TemperatureHumidityPressure
High48 °F (Jan 7, 1:56 pm)93% (Jan 4, 11:31 am)30.88 "Hg (Jan 4, 11:31 am)
Low17 °F (Jan 16, 7:56 am)20% (Jan 7, 1:56 pm)29.16 "Hg (Jan 18, 7:42 pm)
Average32 °F73%29.87 "Hg
* Reported Jan 4 11:31 am — Jan 19 11:28 am, Unalaska, Weather by CustomWeather, © 2017

Note: Actual official high and low records may vary slightly from our data, if they occured in-between our weather recording intervals... More about our weather records

Advertising

Unalaska Weather History for the Previous 24 Hours

Scroll right to see more
 ConditionsComfort  
Time TempWeatherWind HumidityBarometerVisibility
11:28 am
Thu, Jan 19
28 °FLight snow. Broken clouds.6 mph86%29.36 "Hg8 mi
11:01 am32 °FLight snow. Cloudy.17 mph69%29.36 "Hg6 mi
10:38 am32 °FBroken clouds.10 mph47%29.34 "Hg10 mi
9:56 am33 °FPartly cloudy.13 mph49%29.33 "Hg10 mi
8:56 am33 °FLight snow. Mostly cloudy.13 mph48%29.31 "Hg10 mi
7:56 am33 °FPassing clouds.18 mph45%29.28 "Hg10 mi
6:56 am33 °FLight snow. Partly cloudy.10 mph52%29.27 "Hg10 mi
6:16 am34 °FPassing clouds.14 mph51%29.27 "Hg10 mi
5:56 am33 °FLight snow. Mostly cloudy.13 mph54%29.26 "Hg8 mi
4:56 am33 °FLight snow. Overcast.9 mph61%29.25 "Hg9 mi
3:56 am33 °FLight rain. Passing clouds.17 mph56%29.24 "Hg10 mi
2:56 am33 °FPassing clouds.16 mph56%29.23 "Hg10 mi
1:56 am32 °FPassing clouds.12 mph61%29.22 "Hg10 mi
12:56 am33 °FPassing clouds.13 mph58%29.21 "Hg10 mi
11:56 pm
Wed, Jan 18
31 °FOvercast.8 mph67%29.21 "Hg10 mi
10:56 pm31 °FOvercast.8 mph79%29.19 "Hg10 mi
9:47 pm31 °FLight snow. Ice fog.16 mph89%29.18 "Hg4 mi
9:32 pm30 °FLight snow. Ice fog.16 mph93%29.18 "Hg2 mi
9:17 pm32 °FLight snow. Ice fog.12 mph87%29.18 "Hg3 mi
8:56 pm32 °FLight snow. Ice fog.15 mph88%29.17 "Hg2 mi
8:37 pm34 °FLight snow. Fog.8 mph87%29.17 "Hg1 mi
8:30 pm34 °FLight snow. Fog.16 mph87%29.17 "Hg2 mi
8:08 pm34 °FLight snow. Fog.14 mph81%29.17 "Hg2 mi
7:42 pm32 °FLight snow. Ice fog.15 mph87%29.16 "Hg1 mi
7:17 pm32 °FLight snow. Ice fog.16 mph87%29.17 "Hg1 mi
6:56 pm32 °FLight snow. Ice fog.13 mph88%29.18 "Hg1 mi
6:38 pm32 °FLight snow. Ice fog.15 mph87%29.18 "Hg1 mi
6:11 pm32 °FLight snow. Ice fog.10 mph87%29.18 "Hg1 mi
5:58 pm32 °FLight snow. Ice fog.10 mph87%29.19 "Hg1 mi
5:33 pm34 °FLight snow. Mostly cloudy.20 mph70%29.18 "Hg2 mi
4:56 pm33 °FLight snow. Mostly cloudy.15 mph70%29.21 "Hg4 mi
3:56 pm33 °FPartly sunny.17 mph63%29.23 "Hg10 mi
2:56 pm33 °FPartly sunny.14 mph63%29.25 "Hg10 mi
1:56 pm32 °FPartly sunny.17 mph64%29.28 "Hg10 mi
12:56 pm32 °FBroken clouds.12 mph64%29.32 "Hg8 mi
Weather by CustomWeather, © 2017

See weather overviewHow to use our weather pages